This is the latest recevied weather packets stored in our database for station/object KK7KHO. If no packets are shown the sender has not sent any weather packets the latest 10 day(s).
| Time | Temp. | Humidity | Pressure | Rain* | Wind** | Luminosity | Snow |
|---|---|---|---|---|---|---|---|
| 1777427638 | 12.22° C | 83% | 1023.1 hPa | 0 mm | - | 40 W/m² | - |
| 1777427335 | 12.22° C | 83% | 1023 hPa | 0 mm | - | 44 W/m² | - |
| 1777427032 | 12.22° C | 83% | 1023.1 hPa | 0 mm | - | 48 W/m² | - |
| 1777426729 | 12.22° C | 83% | 1023.1 hPa | 0 mm | - | 49 W/m² | - |
| 1777426426 | 12.22° C | 83% | 1022.9 hPa | 0 mm | - | 47 W/m² | - |
| 1777426122 | 12.22° C | 82% | 1023 hPa | 0 mm | - | 43 W/m² | - |
| 1777425817 | 12.22° C | 82% | 1023.1 hPa | 0 mm | - | 41 W/m² | - |
| 1777425512 | 12.22° C | 83% | 1022.9 hPa | 0 mm | - | 39 W/m² | - |
| 1777425207 | 12.22° C | 84% | 1023 hPa | 0 mm | - | 43 W/m² | - |
| 1777424905 | 12.78° C | 84% | 1023 hPa | 0 mm | - | 48 W/m² | - |
| 1777424600 | 12.78° C | 84% | 1023.1 hPa | 0 mm | - | 52 W/m² | - |
| 1777424295 | 12.78° C | 83% | 1023 hPa | 0 mm | - | 52 W/m² | - |
| 1777423991 | 12.78° C | 82% | 1022.9 hPa | 0 mm | - | 65 W/m² | - |
| 1777423689 | 12.78° C | 82% | 1022.9 hPa | 0 mm | - | 76 W/m² | - |
| 1777423384 | 12.78° C | 82% | 1022.8 hPa | 0 mm | - | 83 W/m² | - |
| 1777423084 | 12.78° C | 82% | 1022.9 hPa | 0 mm | - | 88 W/m² | - |
| 1777422780 | 12.78° C | 82% | 1022.9 hPa | 0 mm | - | 100 W/m² | - |
| 1777422475 | 12.78° C | 83% | 1022.9 hPa | 0 mm | - | 101 W/m² | - |
| 1777422170 | 12.78° C | 82% | 1022.8 hPa | 0 mm | - | 96 W/m² | - |
| 1777421865 | 12.78° C | 84% | 1022.9 hPa | 0 mm | - | 93 W/m² | - |
| 1777421560 | 12.78° C | 82% | 1022.8 hPa | 0 mm | - | 93 W/m² | - |
| 1777421256 | 12.78° C | 83% | 1022.6 hPa | 0 mm | - | 90 W/m² | - |
| 1777420953 | 12.78° C | 83% | 1022.7 hPa | 0 mm | - | 89 W/m² | - |
| 1777420649 | 12.78° C | 82% | 1022.9 hPa | 0 mm | - | 93 W/m² | - |
| 1777420346 | 12.78° C | 83% | 1022.7 hPa | 0 mm | - | 93 W/m² | - |
* Rain latest hour (hover to see other rain measurements)
** Current wind speed in m/s (hover to see current wind gust speed)